• în Republica Moldova
  • Lista ţărilor
  • Pe 7 zile
  • Temperatura apei
  • Hartă satelitară
  • Meteo pe hartă
  • Widget-uri
  • user-avatar
    Intrare

    Meteo pe oră la Sankt Polten

    Astăzi, 29 Iunie, Joi

    Timp Temperatura Precipitaţii Vânt Presiune Umiditate
    00:00 +19°C° 0 mm 3 m/s 722 mmHg 81%
    01:00 +19°C° 0 mm 3 m/s 722 mmHg 81%
    02:00 +18°C° 0 mm 3 m/s 722 mmHg 83%
    03:00 +18°C° 0 mm 3 m/s 722 mmHg 84%
    04:00 +17°C° 0 mm 3 m/s 721 mmHg 86%
    05:00 +18°C° 0,1 mm 3 m/s 722 mmHg 85%
    06:00 +19°C° 0,1 mm 4 m/s 722 mmHg 83%
    07:00 +19°C° 0,1 mm 4 m/s 722 mmHg 81%
    08:00 +20°C° 0,1 mm 5 m/s 723 mmHg 76%
    09:00 +21°C° 0,1 mm 5 m/s 723 mmHg 71%
    10:00 +22°C° 0,1 mm 5 m/s 724 mmHg 66%
    11:00 +22°C° 0,2 mm 5 m/s 724 mmHg 64%
    12:00 +23°C° 0,2 mm 5 m/s 724 mmHg 62%
    13:00 +23°C° 0,2 mm 5 m/s 725 mmHg 60%
    14:00 +23°C° 0,2 mm 4 m/s 725 mmHg 61%
    15:00 +23°C° 0,2 mm 4 m/s 725 mmHg 63%
    16:00 +24°C° 0,2 mm 3 m/s 725 mmHg 65%
    17:00 +22°C° 0,1 mm 3 m/s 725 mmHg 70%
    18:00 +21°C° 0,1 mm 2 m/s 725 mmHg 76%
    19:00 +21°C° 0,1 mm 1 m/s 725 mmHg 81%
    20:00 +19°C° 0,2 mm 2 m/s 726 mmHg 84%
    21:00 +17°C° 0,2 mm 2 m/s 726 mmHg 88%
    22:00 +16°C° 0,2 mm 2 m/s 727 mmHg 91%
    23:00 +16°C° 0,1 mm 2 m/s 727 mmHg 90%

    Mâine, 30 Iunie, Vineri

    Timp Temperatura Precipitaţii Vânt Presiune Umiditate
    00:00 +16°C° 0,1 mm 2 m/s 727 mmHg 89%
    01:00 +16°C° 0,1 mm 3 m/s 728 mmHg 88%
    02:00 +15°C° 0 mm 2 m/s 728 mmHg 89%
    03:00 +15°C° 0 mm 2 m/s 728 mmHg 90%
    04:00 +14°C° 0 mm 2 m/s 728 mmHg 91%
    05:00 +15°C° 0 mm 2 m/s 729 mmHg 86%
    06:00 +16°C° 0 mm 2 m/s 729 mmHg 82%
    07:00 +17°C° 0 mm 3 m/s 729 mmHg 77%
    08:00 +18°C° 0 mm 3 m/s 730 mmHg 74%
    09:00 +19°C° 0 mm 3 m/s 730 mmHg 70%
    10:00 +19°C° 0 mm 3 m/s 730 mmHg 66%
    11:00 +20°C° 0,1 mm 3 m/s 730 mmHg 62%
    12:00 +22°C° 0,1 mm 3 m/s 731 mmHg 58%
    13:00 +24°C° 0,1 mm 2 m/s 731 mmHg 54%
    14:00 +24°C° 0,2 mm 2 m/s 731 mmHg 53%
    15:00 +24°C° 0,2 mm 2 m/s 730 mmHg 51%
    16:00 +25°C° 0,2 mm 1 m/s 730 mmHg 50%
    17:00 +23°C° 0 mm 1 m/s 730 mmHg 58%
    18:00 +22°C° 0 mm 1 m/s 730 mmHg 65%
    19:00 +21°C° 0 mm 1 m/s 730 mmHg 73%
    20:00 +19°C° 0,1 mm 1 m/s 730 mmHg 76%
    21:00 +18°C° 0,1 mm 1 m/s 730 mmHg 79%
    22:00 +15°C° 0,1 mm 1 m/s 730 mmHg 82%
    23:00 +15°C° 0,2 mm 1 m/s 730 mmHg 82%

    Poimâine, 1 Iulie, Sâmbătă

    Timp Temperatura Precipitaţii Vânt Presiune Umiditate
    00:00 +15°C° 0,2 mm 1 m/s 730 mmHg 82%
    01:00 +15°C° 0,2 mm 1 m/s 730 mmHg 83%
    02:00 +15°C° 0,3 mm 1 m/s 730 mmHg 85%
    03:00 +15°C° 0,3 mm 2 m/s 730 mmHg 87%
    04:00 +15°C° 0,3 mm 2 m/s 730 mmHg 88%
    05:00 +14°C° 0,8 mm 3 m/s 731 mmHg 89%
    06:00 +14°C° 0,8 mm 3 m/s 731 mmHg 90%
    07:00 +14°C° 0,8 mm 4 m/s 731 mmHg 91%
    08:00 +15°C° 0,5 mm 4 m/s 732 mmHg 89%
    09:00 +15°C° 0,5 mm 4 m/s 732 mmHg 87%
    10:00 +17°C° 0,5 mm 4 m/s 732 mmHg 84%
    11:00 +18°C° 0,1 mm 4 m/s 732 mmHg 76%
    12:00 +20°C° 0,1 mm 4 m/s 732 mmHg 67%
    13:00 +22°C° 0,1 mm 4 m/s 732 mmHg 58%
    14:00 +22°C° 0,1 mm 4 m/s 732 mmHg 57%
    15:00 +22°C° 0,1 mm 4 m/s 732 mmHg 57%
    16:00 +23°C° 0,1 mm 4 m/s 732 mmHg 56%
    17:00 +22°C° 0,1 mm 3 m/s 732 mmHg 63%
    18:00 +20°C° 0,1 mm 3 m/s 732 mmHg 70%
    19:00 +19°C° 0,1 mm 2 m/s 732 mmHg 77%
    20:00 +18°C° 0,1 mm 2 m/s 733 mmHg 80%
    21:00 +17°C° 0,1 mm 2 m/s 733 mmHg 82%
    22:00 +16°C° 0,1 mm 3 m/s 733 mmHg 85%
    23:00 +16°C° 0 mm 3 m/s 733 mmHg 86%

    2 Iulie, Duminică

    Timp Temperatura Precipitaţii Vânt Presiune Umiditate
    00:00 +14°C° 0 mm 3 m/s 733 mmHg 88%
    01:00 +14°C° 0 mm 3 m/s 733 mmHg 89%
    02:00 +14°C° 0 mm 4 m/s 733 mmHg 88%
    03:00 +14°C° 0 mm 4 m/s 733 mmHg 88%
    04:00 +14°C° 0 mm 5 m/s 733 mmHg 87%
    05:00 +14°C° 0,2 mm 5 m/s 734 mmHg 87%
    06:00 +15°C° 0,2 mm 6 m/s 734 mmHg 86%
    07:00 +15°C° 0,2 mm 6 m/s 734 mmHg 85%
    08:00 +15°C° 0,6 mm 6 m/s 734 mmHg 86%
    09:00 +15°C° 0,6 mm 6 m/s 734 mmHg 87%
    10:00 +15°C° 0,6 mm 6 m/s 735 mmHg 89%
    11:00 +15°C° 0,5 mm 6 m/s 735 mmHg 88%
    12:00 +15°C° 0,5 mm 6 m/s 735 mmHg 88%
    13:00 +15°C° 0,5 mm 6 m/s 736 mmHg 88%
    14:00 +15°C° 0,1 mm 6 m/s 736 mmHg 84%
    15:00 +16°C° 0,1 mm 6 m/s 736 mmHg 80%
    16:00 +16°C° 0,1 mm 6 m/s 736 mmHg 76%
    17:00 +16°C° 0,1 mm 6 m/s 736 mmHg 77%
    18:00 +16°C° 0,1 mm 6 m/s 736 mmHg 79%
    19:00 +16°C° 0,1 mm 5 m/s 737 mmHg 80%
    20:00 +16°C° 0 mm 5 m/s 737 mmHg 82%
    21:00 +15°C° 0 mm 5 m/s 737 mmHg 84%
    22:00 +14°C° 0 mm 5 m/s 738 mmHg 86%
    23:00 +15°C° 0,2 mm 5 m/s 738 mmHg 88%

    3 Iulie, Luni

    Timp Temperatura Precipitaţii Vânt Presiune Umiditate
    00:00 +15°C° 0,2 mm 5 m/s 738 mmHg 89%
    01:00 +15°C° 0,2 mm 4 m/s 738 mmHg 91%
    02:00 +14°C° 0,2 mm 4 m/s 738 mmHg 92%
    03:00 +14°C° 0,2 mm 4 m/s 738 mmHg 94%
    04:00 +14°C° 0,2 mm 3 m/s 738 mmHg 95%
    05:00 +14°C° 0,2 mm 4 m/s 738 mmHg 93%
    06:00 +15°C° 0,2 mm 4 m/s 738 mmHg 90%
    07:00 +15°C° 0,2 mm 4 m/s 739 mmHg 88%
    08:00 +17°C° 0,1 mm 4 m/s 739 mmHg 83%
    09:00 +17°C° 0,1 mm 4 m/s 739 mmHg 78%
    10:00 +17°C° 0,1 mm 5 m/s 739 mmHg 74%
    11:00 +19°C° 0 mm 5 m/s 739 mmHg 66%
    12:00 +21°C° 0 mm 5 m/s 739 mmHg 58%
    13:00 +22°C° 0 mm 6 m/s 738 mmHg 51%
    14:00 +22°C° 0 mm 5 m/s 738 mmHg 51%
    15:00 +22°C° 0 mm 5 m/s 738 mmHg 51%
    16:00 +23°C° 0 mm 5 m/s 738 mmHg 51%
    17:00 +21°C° 0 mm 4 m/s 738 mmHg 58%
    18:00 +20°C° 0 mm 3 m/s 738 mmHg 66%
    19:00 +19°C° 0 mm 2 m/s 737 mmHg 73%
    20:00 +17°C° 0 mm 2 m/s 738 mmHg 79%
    21:00 +15°C° 0 mm 2 m/s 738 mmHg 85%
    22:00 +14°C° 0 mm 2 m/s 738 mmHg 91%
    23:00 +14°C° 0,1 mm 2 m/s 738 mmHg 91%

    4 Iulie, Marţi

    Timp Temperatura Precipitaţii Vânt Presiune Umiditate
    00:00 +13°C° 0,1 mm 2 m/s 738 mmHg 91%
    01:00 +13°C° 0,1 mm 2 m/s 737 mmHg 92%
    02:00 +13°C° 0 mm 2 m/s 737 mmHg 92%
    03:00 +13°C° 0 mm 2 m/s 737 mmHg 92%
    04:00 +13°C° 0 mm 2 m/s 737 mmHg 92%
    05:00 +14°C° 0 mm 3 m/s 737 mmHg 87%
    06:00 +16°C° 0 mm 3 m/s 737 mmHg 82%
    07:00 +18°C° 0 mm 4 m/s 737 mmHg 77%
    08:00 +19°C° 0,1 mm 5 m/s 737 mmHg 72%
    09:00 +20°C° 0,1 mm 5 m/s 737 mmHg 68%
    10:00 +21°C° 0,1 mm 6 m/s 737 mmHg 63%
    11:00 +22°C° 0,1 mm 6 m/s 737 mmHg 60%
    12:00 +22°C° 0,1 mm 6 m/s 737 mmHg 57%
    13:00 +23°C° 0,1 mm 6 m/s 737 mmHg 55%
    14:00 +23°C° 0,1 mm 6 m/s 736 mmHg 54%
    15:00 +23°C° 0,1 mm 5 m/s 736 mmHg 54%
    16:00 +23°C° 0,1 mm 5 m/s 736 mmHg 54%
    17:00 +22°C° 0 mm 4 m/s 736 mmHg 61%
    18:00 +21°C° 0 mm 3 m/s 736 mmHg 68%
    19:00 +20°C° 0 mm 2 m/s 736 mmHg 74%
    20:00 +18°C° 0 mm 2 m/s 736 mmHg 80%
    21:00 +16°C° 0 mm 2 m/s 737 mmHg 86%
    22:00 +15°C° 0 mm 2 m/s 737 mmHg 92%
    23:00 +14°C° 0 mm 2 m/s 737 mmHg 93%
    Arată mai mult